METEOR 2-9

导读

METEOR 2-9是独联体(CIS)继承自苏联航天资产后,于1982年12月14日发射的流星二号系列气象卫星,运行于近地轨道。作为苏联第二代业务气象卫星,它搭载多光谱与热红外探测设备,可监测云层分布、海面温度、大气湿度等气象要素,为天气预报、气候研究和灾害预警提供观测数据,是全球气象观测网络的重要组成部分,其数据为多国气象研究提供支持。

Basic Information
目录编号:
13718
目录名称:
METEOR 2-9
国际标识:
1982-116A
轨道中心:
EARTH
卫星名称:
METEOR 2-9
卫星全名:
--
卫星状态:
在轨 (已飞行15887 天)
发射日期:
1982-12-14 UTC
国别 :
俄罗斯(独联体) (CIS)
星等 :
--
Orbit Information
数据来源 国际轨道数据 AOE轨道数据
星历时间 2026-06-13T03:24:37+0800
7小时前
查看轨道信息
2026-06-12T08:00:00+0800
1天前
查看轨道信息
半长轴 7217.231km 7217.229km
偏心率 0.0052744 0.0052894
轨道倾角 81.250° 81.253°
近地点辐角 334.268° 336.966°
升交点赤经 351.567° 352.361°
平近点角 25.587° 222.626°
近地点 801.027km 800.917km
远地点 877.161km 877.267km
周期 101.699分钟 101.699分钟
每日圈数 14.159468 14.159473
Detailed Information
使用方式:
暂无
2D Orbit Map
3D Orbit Map
Orbit Altitude Analysis Chart
Orbit Inclination Analysis Chart
Orbit Comprehensive Analysis Chart
View Comprehensive Chart